Location: Unspecified
(0.0000°N, 0.0000°E)
Time: 19:02:07
(UTC+00:00)

deb Explorer IX - Pass Details

Date: 28 November 2019
Orbit: 545 x 1105 km, 38.8° (Epoch: 08 December)

Event Time Altitude Azimuth Distance (km) Brightness Sun altitude
Rises 16:59:36 0° 223° (SW) 3,346 ? 11.2°
Reaches altitude 10° 17:01:58 10° 220° (SW) 2,496 ? 10.7°
Maximum altitude 17:07:58 66° 138° (SE) 1,038 ? 9.3°
Drops below altitude 10° 17:14:51 10° 57° (ENE) 2,846 ? 7.7°
Sets 17:17:43 0° 54° (NE) 3,848 ? 7.0°
